Regional Weather Roundup
Issued by NWS Upton, NY

Current Version | Previous Version | Graphics & Text | Print | Product List | Glossary Off
Versions: 1 2 3 4 5 6 7 8 9 10 11 12 13 14 15 16 17 18 19 20 21 22 23 24 25 26 27 28 29 30 31 32 33 34 35 36 37 38 39 40 41 42 43 44 45 46 47 48 49 50

000
ASUS41 KOKX 280718
RWROKX

REGIONAL WEATHER ROUNDUP
NATIONAL WEATHER SERVICE NEW YORK NY
300 AM EDT THU MAY 28 2015

NOTE: "FAIR" INDICATES FEW OR NO CLOUDS BELOW 12,000 FEET WITH NO
SIGNIFICANT WEATHER AND/OR OBSTRUCTIONS TO VISIBILITY.

NYZ071-072-176-178-NJZ106-104-280800-
NEW YORK CITY METRO AREA


CITY           SKY/WX    TMP DP  RH WIND       PRES   REMARKS
CENTRAL PARK   MOCLDY    71  66  84 W6        30.15S
LAGUARDIA APRT MOCLDY    70  63  78 S6        30.12S
KENNEDY INTL   MOCLDY    60  56  86 SE5       30.14S
NEWARK/LIBERTY CLOUDY    71  67  87 SW7       30.12F
BRNX BOT. GARD   N/A     64  63  94 E1        30.13F
TETERBORO      PTCLDY    70  66  87 CALM      30.11F
$$

NYZ177-179-078>081-280800-
LONG ISLAND NEW YORK

CITY           SKY/WX    TMP DP  RH WIND       PRES   REMARKS
FARMINGDALE    CLOUDY    63  60  90 SW8       30.15S
ISLIP          MOCLDY    64  60  87 SW9       30.14S
SHIRLEY        MOCLDY    64  60  87 SW10      30.16S
WESTHAMPTON    PTCLDY    62  59  90 SW10      30.17S
MONTAUK POINT    N/A     61  58  90 S8        30.18R
$$

NYZ052-065-067-280800-
HUDSON VALLEY

CITY           SKY/WX    TMP DP  RH WIND       PRES   REMARKS
WHITE PLAINS   MOCLDY    63  62  97 SE3       30.13F FOG
NEWBURGH       MOCLDY    66  66 100 CALM      30.13S
MONTGOMERY     CLOUDY    68  67  96 S7        30.12R FOG
POUGHKEEPSIE   MOCLDY    66  64  93 SE3       30.11S
ALBANY         CLOUDY    68  65  90 S8        30.07S
$$

NJZ001-105-106-008-010-013-015-019>022-104-280800-
NEW JERSEY

CITY           SKY/WX    TMP DP  RH WIND       PRES   REMARKS
NEWARK/LIBERTY CLOUDY    71  67  87 SW7       30.12F
TETERBORO      PTCLDY    70  66  87 CALM      30.11F
CALDWELL       PTCLDY    69  66  90 CALM      30.13F FOG
MORRISTOWN     FOG       68  66  94 CALM      30.13S VSB 1/2
SOMERVILLE     CLOUDY    66  64  93 CALM      30.11S FOG
SUSSEX         CLOUDY    68  66  93 S3        30.14F FOG
ANDOVER          N/A     65  65 100 CALM      30.14S
TRENTON        PTCLDY    68  66  93 SW3       30.13S
MILLVILLE      PTCLDY    68  65  90 SE5       30.14F
ATLANTIC CITY  PTCLDY    65  61  87 S7        30.15F
WRIGHTSTOWN    PTCLDY    67  66  98 S3        30.11S
TOMS RIVER     CLEAR    N/A N/A N/A S3        30.14F
BELMAR         PTCLDY    68  61  77 SW6       30.14S
$$

PAZ047>061-062-071-280800-
EASTERN PENNSYLVANIA

CITY           SKY/WX    TMP DP  RH WIND       PRES   REMARKS
PHILADELPHIA   MOCLDY    71  67  87 S6        30.13F
ALLENTOWN      FOG       65  63  93 CALM      30.13S VSB<1/4
SCRANTON       CLEAR     69  63  81 SW5       30.12S
$$

CTZ002-004>006-009-010-012-RIZ004-006-007-MAZ004-011-015-280800-
SOUTHERN NEW ENGLAND
 IN CT

CITY           SKY/WX    TMP DP  RH WIND       PRES   REMARKS
BRADLEY INTL   CLOUDY    66  63  90 S9        30.12R
HARTFORD       CLOUDY    66  61  84 S9        30.13S
DANBURY        CLOUDY    67  64  90 W6        30.15S FOG
WTRBRY/OXFORD  CLOUDY    64  59  82 SW5       30.16S
BRIDGEPORT     MOCLDY    65  61  87 SW3       30.14S
MERIDEN        PTCLDY    63  60  90 CALM      30.14S
NEW HAVEN      PTCLDY    63  60  90 CALM      30.14S
CHESTER        FAIR      63  61  94 SW6       30.15F
GROTON         MOCLDY    60  57  89 S5        30.15S
WILLIMANTIC    CLOUDY    66  61  84 SW5       30.15S

 IN RI

CITY           SKY/WX    TMP DP  RH WIND       PRES   REMARKS
PROVIDENCE     CLOUDY    64  59  83 SW10      30.15S
BLOCK ISLAND   PTCLDY    59  55  88 SW15G21   30.17S
WESTERLY       PTCLDY    60  58  92 S10       30.17S

 IN MA

CITY           SKY/WX    TMP DP  RH WIND       PRES   REMARKS
BOSTON         CLOUDY    66  60  81 SW13      30.11S
WORCESTER      CLOUDY    65  61  87 SW9       30.14S
WESTFIELD      CLOUDY    65  63  93 S7        30.11S
PROVINCETOWN   PTCLDY    61  55  82 SW16G23   30.14F
NANTUCKET      CLEAR     60  57  89 S12       30.20F
$$

ANZ330-335-338-340-345-350-353-355-280800-
COASTAL MARINE OBSERVATIONS


STATION/POSITION TIME  SKY/WX   TEMP    WIND        PRES    VSBY  WAVE
                                AIR SEA DIR/SP/G                  HT/PER
                 (UTC)          (F)     (DEG/KT/KT) (MB)    (MI)  (FT/S)
NY HARB ENTRANCE 0650            58 50  200/ 14/ 16 1019.9          4/ 6
4S FIRE IS       0603               56                N/A           5/ 6
20S FIRE ISLAND  0650            61 57  200/ 14/ 16 1020.8          4/ 6
GREAT SOUTH BAY  0600            63 67  220/ 16/ 19   N/A
23SW MTP         0650            60 54  210/ 16/ 19 1021.0          4/ 6
HUDSON CANYON    NOT AVBL
KINGS POINT      0600            65 61  190/  8/ 10 1019.7
CENTRAL LI SOUND 0630            60 56  240/  6/  8   N/A
EASTERN LI SOUND 0600            60     250/ 10/ 14   N/A
ROBBINS REEF     0600            70     260/  6/  8 1019.1
$$


>>>>>>>>>>>>>>>>>>>>>>>>>>>> KEY <<<<<<<<<<<<<<<<<<<<<<<<<<<
>                                                          <
>     SKY/WX - SKY CONDITION/PRESENT WEATHER               <
>     TMP    - TEMPERATURE IN FAHRENHEIT                   <
>     DP     - DEWPOINT IN FAHRENHEIT                      <
>     RH     - RELATIVE HUMIDITY IN PERCENT                <
>     WIND   - DIRECTION AND SPEED IN MPH                  <
>     PRES   - MEAN SEA LEVEL PRESSURE IN INCHES OF HG     <
>     WCI    - WIND CHILL INDEX                            <
>     VSB    - VISIBILITY IN MILES                         <
>     HX     - HEAT INDEX                                  <
>     TC     - TEMPERATURE IN CELSIUS                      <
>     VRB    - VARIABLE WIND DIRECTION                     <
>                                                          <
>>>>>>>>>>>>>>>>>>>>>>>>>>>> KEY <<<<<<<<<<<<<<<<<<<<<<<<<<<




USA.gov is the U.S. government's official web portal to all federal, state and local government web resources and services.